sat.trackr.live / text

‹ back to catalog

STARLINK-36179

NORAD 67119 · 2025-299T

PAYLOAD ACTIVE UNKNOWN

§ Identity

Operator
Country
US
Launch date
2025-12-15
Launch site
AFETR
Launch vehicle
Mass (kg)
RCS (m²)

Purposes: comms

External: N2YO · Heavens-Above · Gunter

§ Orbital elements

Epoch: 2026-09-19T23:53:09.930048Z

Period
94.27 min
Inclination
43.0014°
Eccentricity
0.0000863
Mean motion
15.27596351 rev/d
Perigee alt
482.4 km
Apogee alt
483.6 km
Semi-major
6,861.1 km
B*
3.6966e-4
RAAN
151.5819°
Arg perigee
269.6274°
Mean anomaly
90.4479°
Rev number
4,283

§ Raw data

STARLINK-361791 67119U 25299T   26262.99525382  .00009929  00000+0  36966-3 0  99932 67119  43.0014 151.5819 0000863 269.6274  90.4479 15.27596351 42835

JSON: /api/v1/satellites/67119 · /tle

For live sub-satellite position, see the globe view (requires WebGL).

§ Visibility from observer

Set your observer location to see the next 7 days of passes ≥ 10°. The values pass through the URL so the page stays shareable.

No JS? Fill the form by hand. The geolocation button needs JavaScript.